Regional Weather Roundup
Issued by NWS Goodland, KS

Home | Current Version | Previous Version | Graphics & Text | Print | Product List | Glossary On
Versions: 1 2 3 4 5 6 7 8 9 10 11 12 13 14 15 16 17 18 19 20 21 22 23 24 25 26 27 28 29 30 31 32 33 34 35 36 37 38 39 40 41 42 43 44 45 46 47 48 49 50
000
ASUS43 KGLD 152059
RWRGLD

GOODLAND FORECAST AREA HOURLY WEATHER ROUNDUP
NATIONAL WEATHER SERVICE GOODLAND KS
300 PM MDT MON SEP 15 2014

...OFFICIAL OBSERVATIONS...

CITY           SKY/WX    TMP DP  RH WIND       PRES   REMARKS
GOODLAND KS    MOSUNNY   67  50  54 VRB5      30.30F
HILL CITY KS   FAIR      73  49  42 NE9G22    30.24F
IMPERIAL NEB   SUNNY     67  41  38 E7        30.28F
MCCOOK NEB     SUNNY     68  43  40 E8        30.27F
AKRON CO       SUNNY     64  47  53 S12G25    30.30F
BURLINGTON CO  CLOUDY    58  50  75 NW3       30.32F
LIMON CO       MOSUNNY   65  50  58 SE10      30.31F
$$

...UNOFFICIAL OBSERVATIONS...

CITY           SKY/WX    TMP DP  RH WIND       PRES   REMARKS
COLBY KS       SUNNY     68  54  60 N8        30.28F
NORTON KS      SUNNY     70  36  28 N13       30.24S
SHARON SPRINGS   N/A     64  54  70 N8          N/A
WAKEENEY KS      N/A     69  48  46 MISG        N/A
TRENTON NEB      N/A     67  32  27 CALM        N/A
YUMA CO          N/A     65  46  51 SE6G13      N/A
$$



USA.gov is the U.S. government's official web portal to all federal, state and local government web resources and services.